TimeMST,TemperatureF,Dew PointF,Humidity,Sea Level PressureIn,VisibilityMPH,Wind Direction,Wind SpeedMPH,Gust SpeedMPH,PrecipitationIn,Events,Conditions,WindDirDegrees,DateUTC
12:56 AM,1.9,-2.0,83,30.06,-9999.0,Calm,Calm,-,N/A,,Unknown,0,2013-02-22 07:56:00
1:56 AM,-0.0,-4.0,83,30.08,-9999.0,Calm,Calm,-,N/A,,Unknown,0,2013-02-22 08:56:00
2:56 AM,1.9,-2.9,80,30.04,-9999.0,Calm,Calm,-,N/A,,Unknown,0,2013-02-22 09:56:00
3:56 AM,-0.0,-5.1,79,30.06,-9999.0,Calm,Calm,-,N/A,,Unknown,0,2013-02-22 10:56:00
4:56 AM,-0.9,-5.1,83,30.09,-9999.0,Calm,Calm,-,N/A,,Unknown,0,2013-02-22 11:56:00
5:56 AM,-4.0,-9.0,79,30.16,-9999.0,Calm,Calm,-,N/A,,Unknown,0,2013-02-22 12:56:00
6:56 AM,-2.9,-7.1,82,30.20,-9999.0,Calm,Calm,-,N/A,,Unknown,0,2013-02-22 13:56:00
7:56 AM,-0.0,-4.0,83,30.24,-9999.0,Calm,Calm,-,N/A,,Unknown,0,2013-02-22 14:56:00
8:56 AM,7.0,3.9,87,30.23,-9999.0,Calm,Calm,-,N/A,,Unknown,0,2013-02-22 15:56:00
9:56 AM,10.0,5.0,80,30.20,-9999.0,East,4.6,-,N/A,,Unknown,80,2013-02-22 16:56:00
10:56 AM,12.9,6.1,74,30.17,-9999.0,ENE,3.5,-,N/A,,Unknown,70,2013-02-22 17:56:00
11:56 AM,19.0,3.9,52,30.12,-9999.0,Variable,4.6,-,0.01,,Unknown,0,2013-02-22 18:56:00
12:56 PM,19.0,3.0,50,30.09,-9999.0,West,9.2,17.3,N/A,,Unknown,260,2013-02-22 19:56:00
1:56 PM,19.9,7.0,57,30.08,-9999.0,West,8.1,-,N/A,,Unknown,270,2013-02-22 20:56:00
2:56 PM,19.0,9.0,65,30.06,-9999.0,Variable,5.8,-,N/A,,Unknown,0,2013-02-22 21:56:00
3:56 PM,17.1,6.1,62,30.10,-9999.0,West,9.2,17.3,N/A,,Unknown,270,2013-02-22 22:56:00
4:56 PM,15.1,8.1,74,30.14,-9999.0,Variable,4.6,-,N/A,,Unknown,0,2013-02-22 23:56:00
5:56 PM,14.0,8.1,77,30.15,-9999.0,Variable,3.5,-,N/A,,Unknown,0,2013-02-23 00:56:00
6:56 PM,14.0,9.0,80,30.14,-9999.0,Calm,Calm,-,N/A,,Unknown,0,2013-02-23 01:56:00
7:56 PM,15.1,10.0,80,30.11,-9999.0,Calm,Calm,-,N/A,,Unknown,0,2013-02-23 02:56:00
8:56 PM,15.1,10.9,84,30.06,-9999.0,Calm,Calm,-,N/A,,Unknown,0,2013-02-23 03:56:00
9:56 PM,16.0,12.0,84,30.02,-9999.0,Calm,Calm,-,0.02,,Unknown,0,2013-02-23 04:56:00
10:56 PM,16.0,12.9,88,29.98,-9999.0,Calm,Calm,-,N/A,,Unknown,0,2013-02-23 05:56:00
11:56 PM,16.0,12.9,88,29.92,-9999.0,Calm,Calm,-,0.02,,Unknown,0,2013-02-23 06:56:00